This demonstration page uses our WeatherBlox Daily Observations layout. Learn more.

Left ArrowRight Arrow

39.29038, -76.61219

Hourly Observations for February 1, 2017

Temp ( °F °C ) Dew Point ( °F °C ) Humidity (%) Winds ( mph kmh ) Pressure ( in mb ) Visibility ( mi km ) Precip ( " mm )
12:54 am 00:54 undefined 40 4.4 28 -2.2 63 63 undefined N/A 29.92 1013 N/A N/A
1:54 am 01:54 undefined 43 6.1 27 -2.8 53 53 undefined N/A 29.91 1013 N/A N/A
2:54 am 02:54 undefined 45 7.2 26 -3.3 48 48 undefined N/A 29.94 1014 N/A N/A
3:54 am 03:54 undefined 46 7.8 26 -3.3 46 46 undefined N/A 29.95 1014 N/A N/A
4:54 am 04:54 undefined 47 8.3 26 -3.3 44 44 undefined N/A 29.97 1015 N/A N/A
5:54 am 05:54 undefined 47 8.3 26 -3.3 44 44 undefined N/A 29.96 1015 N/A N/A
6:54 am 06:54 undefined 46 7.8 25 -3.9 44 44 undefined N/A 29.98 1015 N/A N/A
7:54 am 07:54 undefined 45 7.2 26 -3.3 48 48 undefined N/A 30.00 1016 N/A N/A
8:54 am 08:54 undefined 46 7.8 25 -3.9 44 44 undefined N/A 30.00 1016 N/A N/A
9:54 am 09:54 undefined 48 8.9 25 -3.9 41 41 undefined N/A 30.01 1016 N/A N/A
10:54 am 10:54 undefined 49 9.4 25 -3.9 39 39 undefined N/A 29.99 1016 N/A N/A
11:54 am 11:54 undefined 48 8.9 26 -3.3 42 42 undefined N/A 29.99 1016 N/A N/A
12:54 pm 12:54 undefined 49 9.4 26 -3.3 41 41 undefined N/A 29.97 1015 N/A N/A
1:54 pm 13:54 undefined 50 10 27 -2.8 41 41 undefined N/A 29.96 1015 N/A N/A
2:54 pm 14:54 undefined 50 10 27 -2.8 41 41 undefined N/A 29.96 1015 N/A N/A
3:54 pm 15:54 undefined 51 10.6 28 -2.2 41 41 undefined N/A 29.97 1015 N/A N/A
4:54 pm 16:54 undefined 50 10 28 -2.2 43 43 undefined N/A 30.01 1016 N/A N/A
5:54 pm 17:54 undefined 50 10 29 -1.7 44 44 undefined N/A 30.04 1017 N/A N/A
6:54 pm 18:54 undefined 45 7.2 28 -2.2 52 52 undefined N/A 29.83 1010 N/A N/A
7:54 pm 19:54 undefined 47 8.3 26 -3.3 44 44 undefined N/A 30.07 1018 N/A N/A
8:54 pm 20:54 undefined 47 8.3 26 -3.3 44 44 undefined N/A 30.08 1019 N/A N/A
9:54 pm 21:54 undefined 46 7.8 27 -2.8 47 47 undefined N/A 30.07 1018 N/A N/A
10:54 pm 22:54 undefined 46 7.8 27 -2.8 47 47 undefined N/A 30.07 1018 N/A N/A
11:54 pm 23:54 undefined 45 7.2 27 -2.8 49 49 undefined N/A 30.06 1018 N/A N/A

Powered by AerisWeather